SILO ALERT LOG
| Silo ID | Alert Type | Alert Message | Silo Type | Points | Depth (mm) | Strength | Temperature (°C) | Humidity (%) | Height (mm) | Volume (㎥) | Weight (t) | Flag | Time |
|---|---|---|---|---|---|---|---|---|---|---|---|---|---|
| DJSAD03 | Humidity | 습도센서 측정값이 80% 초과 | 평 | 446 | 1695 | 6181 | 3.8 | 84.5 | 7084 | 293.287 | 185.416 | 0 | 2024-01-04 11:39:40.000 |
| DJSAD02 | Humidity | 습도센서 측정값이 80% 초과 | 평 | 473 | 856 | 7129 | 2.6 | 88.9 | 7923 | 328.007 | 207.366 | 13 | 2024-01-04 11:39:39.000 |
| DJSAD01 | Humidity | 습도센서 측정값이 80% 초과 | 평 | 418 | 1462 | 6977 | 2 | 88.8 | 7317 | 302.939 | 191.518 | 0 | 2024-01-04 11:39:39.000 |
| DJDJD03 | Humidity | 습도센서 측정값이 80% 초과 | 평 | 58 | 4956 | 5034 | 3.7 | 82.6 | 2723 | 329.96 | 208.601 | 0 | 2024-01-04 11:39:39.000 |
| DJSSD04 | Temperature | 온도센서 상태 이상 | 평 | 0 | 8200 | 0 | -999 | -999 | -120 | -16.702 | 0 | 31 | 2024-01-04 11:39:34.000 |
| DJSSD01 | Humidity | 습도센서 측정값이 80% 초과 | 평 | 800 | 2566 | 4674 | 5.9 | 83.5 | 5513 | 767.396 | 485.148 | 0 | 2024-01-04 11:39:33.000 |
| DJHNR01 | Humidity | 습도센서 측정값이 80% 초과 | 호퍼 | 457 | 4284 | 4536 | 6 | 99.9 | 11095 | 474.538 | 300.003 | 13 | 2024-01-04 11:39:33.000 |
| DJSAD12 | Humidity | 습도센서 측정값이 80% 초과 | 평 | 0 | 7700 | 0 | 3.3 | 86.6 | -120 | -17.075 | 0 | 31 | 2024-01-04 11:39:33.000 |
| DJSSD05 | Temperature | 온도센서 측정값이 0도 미만 | 평 | 840 | 2549 | 4883 | -45.4 | 43.6 | 5530 | 769.72 | 486.617 | 0 | 2024-01-04 11:39:32.000 |
| DJSAD08 | Humidity | 습도센서 측정값이 80% 초과 | 평 | 594 | 2537 | 4999 | 7.4 | 84.6 | 5042 | 717.489 | 453.596 | 12 | 2024-01-04 11:39:32.000 |
| DJSAD07 | Humidity | 습도센서 측정값이 80% 초과 | 평 | 660 | 2549 | 2679 | 4.2 | 86.2 | 5030 | 715.851 | 452.561 | 0 | 2024-01-04 11:39:32.000 |
| DJSAD18 | Humidity | 습도센서 측정값이 80% 초과 | 평 | 116 | 1442 | 5731 | 5 | 80.8 | 6137 | 611.138 | 386.361 | 11 | 2024-01-04 11:39:31.000 |
| DJSAD16 | Humidity | 습도센서 측정값이 80% 초과 | 평 | 84 | 6264 | 3370 | 4.9 | 80.5 | 1315 | 130.956 | 82.79 | 11 | 2024-01-04 11:39:31.000 |
| DJSSD09 | Temperature | 온도센서 측정값이 0도 미만 | 평 | 106 | 2988 | 3255 | -45.4 | 0 | 4691 | 652.961 | 412.802 | 11 | 2024-01-04 11:39:31.000 |
| DJDJD04 | Humidity | 습도센서 측정값이 80% 초과 | 평 | 10 | 2742 | 5369 | 8.3 | 80.9 | 4937 | 598.204 | 378.184 | 11 | 2024-01-04 11:39:31.000 |
| DJSAD17 | Humidity | 습도센서 측정값이 80% 초과 | 평 | 444 | 3146 | 4864 | 4.3 | 80.2 | 4433 | 441.477 | 279.102 | 0 | 2024-01-04 11:39:30.000 |
| DJHNR11 | Humidity | 습도센서 측정값이 80% 초과 | 호퍼 | 0 | 10500 | 2749 | 1.8 | 81.6 | -120 | 0 | 0 | 0 | 2024-01-04 11:39:30.000 |
| DJHNR04 | Humidity | 습도센서 측정값이 80% 초과 | 호퍼 | 149 | 914 | 4993 | 8.5 | 80.7 | 14465 | 670.663 | 423.993 | 29 | 2024-01-04 11:39:29.000 |
| DJHNR12 | Humidity | 습도센서 측정값이 80% 초과 | 호퍼 | 21 | 677 | 784 | 12.6 | 82.8 | 9702 | 155.331 | 98.2 | 11 | 2024-01-04 11:39:29.000 |
| DJHNR03 | Temperature | 온도센서 상태 이상 | 호퍼 | 0 | 15500 | 0 | -999 | -999 | -119 | 0 | 0 | 31 | 2024-01-04 11:39:24.000 |
[첫 페이지] [10187] [10188] [10189] [10190] 10191 [10192] [10193] [10194] [10195] [마지막 페이지]